Time,TemperatureF,DewpointF,PressureIn,WindDirection,WindDirectionDegrees,WindSpeedMPH,WindSpeedGustMPH,Humidity,HourlyPrecipIn,Conditions,Clouds,dailyrainin,SoftwareType,DateUTC
2013-04-12 00:00:00,47.2,41.0,29.85,ENE,66,6.3,8.3,79,0.00,,,0.00,VWS V14.01,2013-04-12 04:00:00,
2013-04-12 00:01:00,47.2,41.0,29.85,East,96,4.5,6.3,79,0.00,,,0.00,VWS V14.01,2013-04-12 04:01:00,
2013-04-12 00:02:00,47.2,41.4,29.85,ESE,104,6.7,6.7,80,0.00,,,0.00,VWS V14.01,2013-04-12 04:02:00,
2013-04-12 00:03:00,47.2,41.4,29.85,ENE,65,8.3,8.3,80,0.00,,,0.00,VWS V14.01,2013-04-12 04:03:00,
2013-04-12 00:04:00,47.0,41.2,29.85,ENE,77,8.3,10.1,80,0.00,,,0.00,VWS V14.01,2013-04-12 04:04:00,
2013-04-12 00:05:00,47.0,41.2,29.85,ENE,62,8.3,8.3,80,0.00,,,0.00,VWS V14.01,2013-04-12 04:05:00,
2013-04-12 00:06:00,47.0,41.5,29.85,ENE,58,2.7,8.3,81,0.00,,,0.00,VWS V14.01,2013-04-12 04:06:00,
2013-04-12 00:07:00,47.0,41.5,29.85,East,100,8.7,13.2,81,0.00,,,0.00,VWS V14.01,2013-04-12 04:07:00,
2013-04-12 00:08:00,47.0,41.5,29.85,East,89,6.3,8.7,81,0.00,,,0.00,VWS V14.01,2013-04-12 04:08:00,
2013-04-12 00:09:00,47.0,41.5,29.85,East,94,8.7,12.8,81,0.00,,,0.00,VWS V14.01,2013-04-12 04:09:00,
2013-04-12 00:10:00,46.9,41.3,29.85,ENE,76,4.0,8.7,81,0.00,,,0.00,VWS V14.01,2013-04-12 04:10:00,
2013-04-12 00:11:00,47.0,41.5,29.85,ENE,60,6.3,8.1,81,0.00,,,0.00,VWS V14.01,2013-04-12 04:11:00,
2013-04-12 00:12:00,46.9,41.7,29.85,ENE,61,7.6,8.1,82,0.00,,,0.00,VWS V14.01,2013-04-12 04:12:00,
2013-04-12 00:13:00,46.9,41.7,29.85,NE,55,10.5,10.5,82,0.00,,,0.00,VWS V14.01,2013-04-12 04:13:00,
2013-04-12 00:14:00,46.9,42.0,29.85,ENE,73,8.3,10.5,83,0.00,,,0.00,VWS V14.01,2013-04-12 04:14:00,
2013-04-12 00:15:00,46.9,42.0,29.85,NE,50,5.4,8.3,83,0.00,,,0.00,VWS V14.01,2013-04-12 04:15:00,
2013-04-12 00:16:00,46.9,42.0,29.85,ENE,66,4.0,8.1,83,0.00,,,0.00,VWS V14.01,2013-04-12 04:16:00,
2013-04-12 00:17:00,46.9,42.0,29.85,ENE,62,8.1,8.1,83,0.00,,,0.00,VWS V14.01,2013-04-12 04:17:00,
2013-04-12 00:18:00,46.9,42.0,29.85,ENE,69,8.1,8.1,83,0.00,,,0.00,VWS V14.01,2013-04-12 04:18:00,
2013-04-12 00:19:00,46.9,42.3,29.85,ENE,59,8.7,11.0,84,0.00,,,0.00,VWS V14.01,2013-04-12 04:19:00,
2013-04-12 00:20:00,46.9,42.3,29.85,ENE,62,12.8,12.8,84,0.00,,,0.00,VWS V14.01,2013-04-12 04:20:00,
2013-04-12 00:21:00,46.7,42.1,29.85,ENE,60,4.9,12.8,84,0.00,,,0.00,VWS V14.01,2013-04-12 04:21:00,
2013-04-12 00:22:00,46.7,42.1,29.85,ENE,75,5.4,5.8,84,0.00,,,0.00,VWS V14.01,2013-04-12 04:22:00,
2013-04-12 00:23:00,46.7,42.1,29.85,North,4,5.8,5.8,84,0.00,,,0.00,VWS V14.01,2013-04-12 04:23:00,
2013-04-12 00:24:00,46.7,42.4,29.85,ENE,62,8.3,9.6,85,0.00,,,0.00,VWS V14.01,2013-04-12 04:24:00,
2013-04-12 00:25:00,46.5,42.2,29.85,East,79,7.6,8.3,85,0.00,,,0.00,VWS V14.01,2013-04-12 04:25:00,
2013-04-12 00:26:00,46.5,42.2,29.85,ENE,77,8.3,17.0,85,0.00,,,0.00,VWS V14.01,2013-04-12 04:26:00,
2013-04-12 00:27:00,46.5,42.2,29.85,NE,56,8.7,8.7,85,0.00,,,0.00,VWS V14.01,2013-04-12 04:27:00,
2013-04-12 00:28:00,46.5,42.2,29.85,ENE,73,8.1,8.7,85,0.00,,,0.00,VWS V14.01,2013-04-12 04:28:00,
2013-04-12 00:29:00,46.5,42.2,29.85,East,97,7.2,8.1,85,0.00,,,0.00,VWS V14.01,2013-04-12 04:29:00,
2013-04-12 00:30:00,46.5,42.5,29.85,ENE,65,8.1,10.1,86,0.00,,,0.00,VWS V14.01,2013-04-12 04:30:00,
2013-04-12 00:31:00,46.5,42.5,29.85,ENE,68,8.1,8.1,86,0.00,,,0.00,VWS V14.01,2013-04-12 04:31:00,
2013-04-12 00:32:00,46.5,42.5,29.85,ENE,69,7.6,8.3,86,0.00,,,0.00,VWS V14.01,2013-04-12 04:32:00,
2013-04-12 00:33:00,46.5,42.5,29.85,ENE,72,6.3,6.3,86,0.00,,,0.00,VWS V14.01,2013-04-12 04:33:00,
2013-04-12 00:34:00,46.5,42.5,29.85,East,85,12.3,12.3,86,0.00,,,0.00,VWS V14.01,2013-04-12 04:34:00,
2013-04-12 00:35:00,46.3,42.7,29.85,East,96,3.1,12.3,87,0.00,,,0.00,VWS V14.01,2013-04-12 04:35:00,
2013-04-12 00:36:00,46.3,42.7,29.85,ENE,66,7.6,7.6,87,0.00,,,0.00,VWS V14.01,2013-04-12 04:36:00,
2013-04-12 00:37:00,46.3,42.7,29.85,ENE,57,8.1,8.1,87,0.00,,,0.00,VWS V14.01,2013-04-12 04:37:00,
2013-04-12 00:38:00,46.3,42.7,29.85,ENE,69,5.4,8.3,87,0.00,,,0.00,VWS V14.01,2013-04-12 04:38:00,
2013-04-12 00:39:00,46.3,42.7,29.85,ESE,106,7.6,8.3,87,0.00,,,0.00,VWS V14.01,2013-04-12 04:39:00,
2013-04-12 00:40:00,46.3,42.7,29.85,ENE,76,8.3,8.3,87,0.00,,,0.00,VWS V14.01,2013-04-12 04:40:00,
2013-04-12 00:41:00,46.3,42.7,29.85,ENE,65,6.7,8.7,87,0.00,,,0.00,VWS V14.01,2013-04-12 04:41:00,
2013-04-12 00:42:00,46.3,42.7,29.85,ENE,58,5.4,10.5,87,0.00,,,0.00,VWS V14.01,2013-04-12 04:42:00,
2013-04-12 00:43:00,46.1,42.5,29.85,ENE,72,6.7,10.1,87,0.00,,,0.00,VWS V14.01,2013-04-12 04:43:00,
2013-04-12 00:44:00,46.1,42.8,29.85,East,91,5.8,10.1,88,0.00,,,0.00,VWS V14.01,2013-04-12 04:44:00,
2013-04-12 00:45:00,46.1,42.8,29.85,ENE,65,3.6,6.3,88,0.00,,,0.00,VWS V14.01,2013-04-12 04:45:00,
2013-04-12 00:46:00,46.1,42.8,29.85,ENE,61,5.4,5.4,88,0.00,,,0.00,VWS V14.01,2013-04-12 04:46:00,
2013-04-12 00:47:00,46.1,42.8,29.85,ENE,59,9.6,9.6,88,0.00,,,0.00,VWS V14.01,2013-04-12 04:47:00,
2013-04-12 00:48:00,46.1,42.8,29.85,NE,49,4.0,4.0,88,0.00,,,0.00,VWS V14.01,2013-04-12 04:48:00,
2013-04-12 00:49:00,46.1,42.8,29.85,NE,43,10.5,10.5,88,0.00,,,0.00,VWS V14.01,2013-04-12 04:49:00,
2013-04-12 00:50:00,46.1,42.8,29.85,ENE,74,5.4,10.5,88,0.00,,,0.00,VWS V14.01,2013-04-12 04:50:00,
2013-04-12 00:51:00,46.1,42.8,29.85,ENE,59,5.4,8.1,88,0.00,,,0.00,VWS V14.01,2013-04-12 04:51:00,
2013-04-12 00:52:00,46.1,42.8,29.85,NE,38,5.8,5.8,88,0.00,,,0.00,VWS V14.01,2013-04-12 04:52:00,
2013-04-12 00:53:00,46.1,43.1,29.85,East,97,6.3,6.7,89,0.00,,,0.00,VWS V14.01,2013-04-12 04:53:00,
2013-04-12 00:54:00,46.1,43.1,29.85,ESE,106,7.6,7.6,89,0.00,,,0.00,VWS V14.01,2013-04-12 04:54:00,
2013-04-12 00:55:00,46.1,43.1,29.85,East,91,4.0,7.6,89,0.00,,,0.00,VWS V14.01,2013-04-12 04:55:00,
2013-04-12 00:56:00,46.1,43.1,29.85,SE,140,3.1,8.7,89,0.00,,,0.00,VWS V14.01,2013-04-12 04:56:00,
2013-04-12 00:57:00,46.1,43.1,29.85,NE,54,6.3,6.3,89,0.00,,,0.00,VWS V14.01,2013-04-12 04:57:00,
2013-04-12 00:58:00,46.1,43.1,29.85,ENE,69,4.0,6.3,89,0.00,,,0.00,VWS V14.01,2013-04-12 04:58:00,
2013-04-12 00:59:00,46.1,43.1,29.85,ENE,68,4.0,6.3,89,0.00,,,0.00,VWS V14.01,2013-04-12 04:59:00,
2013-04-12 01:00:00,46.1,43.1,29.85,NE,41,6.3,6.3,89,0.00,,,0.00,VWS V14.01,2013-04-12 05:00:00,
2013-04-12 01:01:00,46.1,43.1,29.85,ENE,65,7.6,9.6,89,0.00,,,0.00,VWS V14.01,2013-04-12 05:01:00,
2013-04-12 01:02:00,46.1,43.1,29.85,East,90,7.6,11.0,89,0.00,,,0.00,VWS V14.01,2013-04-12 05:02:00,
2013-04-12 01:03:00,46.1,43.4,29.85,ENE,65,8.1,8.7,90,0.00,,,0.00,VWS V14.01,2013-04-12 05:03:00,
2013-04-12 01:04:00,46.1,43.4,29.85,NNE,26,7.6,8.7,90,0.00,,,0.00,VWS V14.01,2013-04-12 05:04:00,
2013-04-12 01:05:00,46.1,43.4,29.85,East,94,4.9,10.5,90,0.00,,,0.00,VWS V14.01,2013-04-12 05:05:00,
2013-04-12 01:06:00,46.1,43.4,29.85,NE,51,5.8,6.3,90,0.00,,,0.00,VWS V14.01,2013-04-12 05:06:00,
2013-04-12 01:07:00,46.0,43.2,29.85,ENE,62,7.6,7.6,90,0.00,,,0.00,VWS V14.01,2013-04-12 05:07:00,
2013-04-12 01:08:00,46.0,43.2,29.85,NE,50,6.3,8.3,90,0.00,,,0.00,VWS V14.01,2013-04-12 05:08:00,
2013-04-12 01:09:00,46.0,43.2,29.85,East,85,10.1,10.1,90,0.00,,,0.00,VWS V14.01,2013-04-12 05:09:00,
2013-04-12 01:10:00,46.0,43.2,29.85,ENE,78,6.3,10.1,90,0.00,,,0.00,VWS V14.01,2013-04-12 05:10:00,
2013-04-12 01:11:00,46.0,43.2,29.85,East,100,4.5,6.3,90,0.00,,,0.00,VWS V14.01,2013-04-12 05:11:00,
2013-04-12 01:12:00,46.0,43.2,29.85,East,80,6.3,11.0,90,0.00,,,0.00,VWS V14.01,2013-04-12 05:12:00,
2013-04-12 01:13:00,46.0,43.2,29.85,ENE,60,7.6,8.1,90,0.00,,,0.00,VWS V14.01,2013-04-12 05:13:00,
2013-04-12 01:14:00,46.0,43.2,29.85,ENE,60,7.6,8.1,90,0.00,,,0.00,VWS V14.01,2013-04-12 05:14:00,
2013-04-12 01:15:00,46.0,43.2,29.85,ENE,78,8.1,10.5,90,0.00,,,0.00,VWS V14.01,2013-04-12 05:15:00,
2013-04-12 01:16:00,46.0,43.2,29.85,ENE,65,3.6,8.3,90,0.00,,,0.00,VWS V14.01,2013-04-12 05:16:00,
2013-04-12 01:17:00,46.0,43.2,29.85,ENE,77,10.5,10.5,90,0.00,,,0.00,VWS V14.01,2013-04-12 05:17:00,
2013-04-12 01:18:00,46.0,43.5,29.85,ENE,65,8.1,10.5,91,0.00,,,0.00,VWS V14.01,2013-04-12 05:18:00,
2013-04-12 01:19:00,46.0,43.5,29.85,East,84,6.3,8.1,91,0.00,,,0.00,VWS V14.01,2013-04-12 05:19:00,
2013-04-12 01:20:00,46.0,43.5,29.85,ESE,102,8.7,8.7,91,0.00,,,0.00,VWS V14.01,2013-04-12 05:20:00,
2013-04-12 01:21:00,46.0,43.5,29.85,NE,54,5.4,8.7,91,0.00,,,0.00,VWS V14.01,2013-04-12 05:21:00,
2013-04-12 01:22:00,46.0,43.5,29.85,ESE,112,6.3,10.5,91,0.00,,,0.00,VWS V14.01,2013-04-12 05:22:00,
2013-04-12 01:23:00,46.0,43.5,29.85,ENE,62,9.6,9.6,91,0.00,,,0.00,VWS V14.01,2013-04-12 05:23:00,
2013-04-12 01:24:00,46.0,43.5,29.85,ESE,122,2.7,9.6,91,0.00,,,0.00,VWS V14.01,2013-04-12 05:24:00,
2013-04-12 01:25:00,46.0,43.5,29.85,ENE,62,7.6,8.7,91,0.00,,,0.00,VWS V14.01,2013-04-12 05:25:00,
2013-04-12 01:26:00,46.0,43.5,29.85,ESE,116,5.8,7.6,91,0.00,,,0.00,VWS V14.01,2013-04-12 05:26:00,
2013-04-12 01:27:00,46.0,43.5,29.85,NE,55,8.1,8.1,91,0.00,,,0.00,VWS V14.01,2013-04-12 05:27:00,
2013-04-12 01:28:00,46.0,43.5,29.85,ENE,70,7.6,10.5,91,0.00,,,0.00,VWS V14.01,2013-04-12 05:28:00,
2013-04-12 01:29:00,46.0,43.5,29.85,NE,47,8.1,8.1,91,0.00,,,0.00,VWS V14.01,2013-04-12 05:29:00,
2013-04-12 01:30:00,46.0,43.5,29.85,ENE,75,7.6,11.0,91,0.00,,,0.00,VWS V14.01,2013-04-12 05:30:00,
2013-04-12 01:31:00,45.8,43.3,29.85,East,87,5.4,7.6,91,0.00,,,0.00,VWS V14.01,2013-04-12 05:31:00,
2013-04-12 01:32:00,45.8,43.3,29.85,NE,52,8.3,8.3,91,0.00,,,0.00,VWS V14.01,2013-04-12 05:32:00,
2013-04-12 01:33:00,45.8,43.6,29.85,ESE,123,4.9,8.3,92,0.00,,,0.00,VWS V14.01,2013-04-12 05:33:00,
2013-04-12 01:34:00,45.8,43.6,29.85,ENE,70,10.5,13.2,92,0.00,,,0.00,VWS V14.01,2013-04-12 05:34:00,
2013-04-12 01:35:00,45.8,43.6,29.85,East,92,5.8,10.5,92,0.00,,,0.00,VWS V14.01,2013-04-12 05:35:00,
2013-04-12 01:36:00,46.0,43.8,29.85,NE,43,10.5,10.5,92,0.00,,,0.00,VWS V14.01,2013-04-12 05:36:00,
2013-04-12 01:37:00,45.8,43.6,29.85,ESE,111,4.0,10.5,92,0.00,,,0.00,VWS V14.01,2013-04-12 05:37:00,
2013-04-12 01:38:00,45.8,43.6,29.85,ENE,78,6.3,6.7,92,0.00,,,0.00,VWS V14.01,2013-04-12 05:38:00,
2013-04-12 01:39:00,46.0,43.8,29.85,ENE,63,10.1,10.1,92,0.00,,,0.00,VWS V14.01,2013-04-12 05:39:00,
2013-04-12 01:40:00,45.8,43.6,29.85,ENE,68,5.8,10.1,92,0.00,,,0.00,VWS V14.01,2013-04-12 05:40:00,
2013-04-12 01:41:00,46.0,43.8,29.85,ENE,59,8.1,8.7,92,0.00,,,0.00,VWS V14.01,2013-04-12 05:41:00,
2013-04-12 01:42:00,46.0,43.8,29.85,ENE,62,4.0,8.3,92,0.00,,,0.00,VWS V14.01,2013-04-12 05:42:00,
2013-04-12 01:43:00,46.0,43.8,29.85,ENE,62,8.1,8.1,92,0.00,,,0.00,VWS V14.01,2013-04-12 05:43:00,
2013-04-12 01:44:00,45.8,43.6,29.85,ENE,68,6.3,7.6,92,0.00,,,0.00,VWS V14.01,2013-04-12 05:44:00,
2013-04-12 01:45:00,45.8,43.6,29.85,East,97,5.4,7.6,92,0.00,,,0.00,VWS V14.01,2013-04-12 05:45:00,
2013-04-12 01:46:00,45.8,43.9,29.85,East,79,6.3,6.3,93,0.00,,,0.00,VWS V14.01,2013-04-12 05:46:00,
2013-04-12 01:47:00,45.8,43.9,29.85,East,83,6.3,6.3,93,0.00,,,0.00,VWS V14.01,2013-04-12 05:47:00,
2013-04-12 01:48:00,45.8,43.9,29.85,SE,126,6.3,6.3,93,0.00,,,0.00,VWS V14.01,2013-04-12 05:48:00,
2013-04-12 01:49:00,45.8,43.9,29.85,NE,55,8.1,8.1,93,0.00,,,0.00,VWS V14.01,2013-04-12 05:49:00,
2013-04-12 01:50:00,45.8,43.9,29.85,NE,56,6.3,8.1,93,0.00,,,0.00,VWS V14.01,2013-04-12 05:50:00,
2013-04-12 01:51:00,45.8,43.9,29.85,East,83,6.3,6.3,93,0.00,,,0.00,VWS V14.01,2013-04-12 05:51:00,
2013-04-12 01:52:00,45.8,43.9,29.85,NE,49,5.8,8.1,93,0.00,,,0.00,VWS V14.01,2013-04-12 05:52:00,
2013-04-12 01:53:00,45.8,43.9,29.85,ENE,67,5.4,8.1,93,0.00,,,0.00,VWS V14.01,2013-04-12 05:53:00,
2013-04-12 01:54:00,45.8,43.9,29.85,ENE,65,3.1,3.6,93,0.00,,,0.00,VWS V14.01,2013-04-12 05:54:00,
2013-04-12 01:55:00,46.0,44.0,29.85,SE,125,3.6,3.6,93,0.00,,,0.00,VWS V14.01,2013-04-12 05:55:00,
2013-04-12 01:56:00,46.0,44.0,29.85,East,82,4.9,6.3,93,0.00,,,0.00,VWS V14.01,2013-04-12 05:56:00,
2013-04-12 01:57:00,46.0,44.0,29.85,NNE,24,6.3,6.3,93,0.00,,,0.00,VWS V14.01,2013-04-12 05:57:00,
2013-04-12 01:58:00,46.0,44.0,29.85,East,85,5.8,13.2,93,0.00,,,0.00,VWS V14.01,2013-04-12 05:58:00,
2013-04-12 01:59:00,46.0,44.0,29.85,ENE,77,8.7,10.1,93,0.00,,,0.00,VWS V14.01,2013-04-12 05:59:00,
2013-04-12 02:00:00,45.8,43.9,29.85,ENE,72,8.7,10.1,93,0.00,,,0.00,VWS V14.01,2013-04-12 06:00:00,
2013-04-12 02:01:00,45.8,43.9,29.85,NE,39,11.0,11.0,93,0.00,,,0.00,VWS V14.01,2013-04-12 06:01:00,
2013-04-12 02:02:00,45.8,43.9,29.85,ENE,70,10.5,11.0,93,0.00,,,0.00,VWS V14.01,2013-04-12 06:02:00,
2013-04-12 02:03:00,45.8,43.9,29.85,ENE,78,3.6,10.5,93,0.00,,,0.00,VWS V14.01,2013-04-12 06:03:00,
2013-04-12 02:04:00,46.0,44.3,29.85,ENE,78,8.3,12.3,94,0.00,,,0.00,VWS V14.01,2013-04-12 06:04:00,
2013-04-12 02:05:00,45.8,44.2,29.85,ENE,78,8.3,12.3,94,0.00,,,0.00,VWS V14.01,2013-04-12 06:05:00,
2013-04-12 02:06:00,45.8,44.2,29.85,ENE,73,5.4,8.3,94,0.00,,,0.00,VWS V14.01,2013-04-12 06:06:00,
2013-04-12 02:07:00,45.8,44.2,29.85,SE,125,6.3,6.3,94,0.00,,,0.00,VWS V14.01,2013-04-12 06:07:00,
2013-04-12 02:08:00,46.0,44.3,29.85,East,82,8.1,8.3,94,0.00,,,0.00,VWS V14.01,2013-04-12 06:08:00,
2013-04-12 02:09:00,46.0,44.3,29.85,ENE,75,5.4,5.4,94,0.00,,,0.00,VWS V14.01,2013-04-12 06:09:00,
2013-04-12 02:10:00,46.0,44.3,29.85,NE,55,11.0,11.0,94,0.00,,,0.00,VWS V14.01,2013-04-12 06:10:00,
2013-04-12 02:11:00,46.0,44.3,29.85,NE,46,5.8,11.0,94,0.00,,,0.00,VWS V14.01,2013-04-12 06:11:00,
2013-04-12 02:12:00,46.0,44.3,29.85,East,99,8.7,8.7,94,0.00,,,0.00,VWS V14.01,2013-04-12 06:12:00,
2013-04-12 02:13:00,46.0,44.3,29.85,ENE,75,4.0,10.1,94,0.00,,,0.00,VWS V14.01,2013-04-12 06:13:00,
2013-04-12 02:14:00,46.0,44.3,29.85,East,97,8.3,8.3,94,0.00,,,0.00,VWS V14.01,2013-04-12 06:14:00,
2013-04-12 02:15:00,46.0,44.3,29.85,ENE,68,6.3,10.1,94,0.00,,,0.00,VWS V14.01,2013-04-12 06:15:00,
2013-04-12 02:16:00,46.0,44.3,29.85,East,97,4.9,6.3,94,0.00,,,0.00,VWS V14.01,2013-04-12 06:16:00,
2013-04-12 02:17:00,46.0,44.3,29.85,SE,130,5.8,5.8,94,0.00,,,0.00,VWS V14.01,2013-04-12 06:17:00,
2013-04-12 02:18:00,46.0,44.3,29.85,ENE,67,3.6,5.8,94,0.00,,,0.00,VWS V14.01,2013-04-12 06:18:00,
2013-04-12 02:19:00,46.0,44.3,29.85,ENE,68,8.1,8.3,94,0.00,,,0.00,VWS V14.01,2013-04-12 06:19:00,
2013-04-12 02:20:00,46.0,44.3,29.85,East,100,4.0,8.1,94,0.00,,,0.00,VWS V14.01,2013-04-12 06:20:00,
2013-04-12 02:21:00,46.0,44.3,29.85,ESE,111,4.0,4.0,94,0.00,,,0.00,VWS V14.01,2013-04-12 06:21:00,
2013-04-12 02:22:00,46.0,44.3,29.85,East,98,5.8,7.6,94,0.00,,,0.00,VWS V14.01,2013-04-12 06:22:00,
2013-04-12 02:23:00,46.0,44.3,29.85,ENE,62,4.9,5.8,94,0.00,,,0.00,VWS V14.01,2013-04-12 06:23:00,
2013-04-12 02:24:00,46.0,44.3,29.85,ENE,67,5.4,8.1,94,0.00,,,0.00,VWS V14.01,2013-04-12 06:24:00,
2013-04-12 02:25:00,46.0,44.6,29.85,East,92,5.4,5.4,95,0.00,,,0.00,VWS V14.01,2013-04-12 06:25:00,
2013-04-12 02:26:00,46.0,44.6,29.85,South,187,6.3,6.3,95,0.00,,,0.00,VWS V14.01,2013-04-12 06:26:00,
2013-04-12 02:27:00,46.0,44.6,29.85,East,87,3.1,6.3,95,0.00,,,0.00,VWS V14.01,2013-04-12 06:27:00,
2013-04-12 02:28:00,46.0,44.6,29.85,East,87,8.3,8.3,95,0.00,,,0.00,VWS V14.01,2013-04-12 06:28:00,
2013-04-12 02:29:00,46.0,44.6,29.85,ENE,70,6.3,8.3,95,0.00,,,0.00,VWS V14.01,2013-04-12 06:29:00,
2013-04-12 02:30:00,46.0,44.6,29.85,NNE,32,5.4,5.8,95,0.00,,,0.00,VWS V14.01,2013-04-12 06:30:00,
2013-04-12 02:31:00,46.0,44.6,29.85,ENE,67,6.3,6.3,95,0.00,,,0.00,VWS V14.01,2013-04-12 06:31:00,
2013-04-12 02:32:00,46.0,44.6,29.85,East,90,8.1,8.1,95,0.00,,,0.00,VWS V14.01,2013-04-12 06:32:00,
2013-04-12 02:33:00,46.0,44.6,29.85,ENE,70,6.3,8.1,95,0.00,,,0.00,VWS V14.01,2013-04-12 06:33:00,
2013-04-12 02:34:00,45.8,44.4,29.85,NE,54,8.1,8.7,95,0.00,,,0.00,VWS V14.01,2013-04-12 06:34:00,
2013-04-12 02:35:00,45.8,44.4,29.85,ENE,60,6.3,8.7,95,0.00,,,0.00,VWS V14.01,2013-04-12 06:35:00,
2013-04-12 02:36:00,45.8,44.4,29.85,ENE,77,8.3,8.7,95,0.00,,,0.00,VWS V14.01,2013-04-12 06:36:00,
2013-04-12 02:37:00,45.8,44.4,29.85,ENE,63,5.8,8.3,95,0.00,,,0.00,VWS V14.01,2013-04-12 06:37:00,
2013-04-12 02:38:00,45.8,44.4,29.85,ENE,61,3.6,8.7,95,0.00,,,0.00,VWS V14.01,2013-04-12 06:38:00,
2013-04-12 02:39:00,45.8,44.4,29.85,East,81,4.0,4.0,95,0.00,,,0.00,VWS V14.01,2013-04-12 06:39:00,
2013-04-12 02:40:00,45.8,44.4,29.85,ESE,111,5.8,9.6,95,0.00,,,0.00,VWS V14.01,2013-04-12 06:40:00,
2013-04-12 02:41:00,45.8,44.4,29.85,East,98,3.1,9.6,95,0.00,,,0.00,VWS V14.01,2013-04-12 06:41:00,
2013-04-12 02:42:00,45.8,44.4,29.85,East,81,7.6,10.1,95,0.00,,,0.00,VWS V14.01,2013-04-12 06:42:00,
2013-04-12 02:43:00,45.6,44.2,29.85,NE,50,5.8,7.6,95,0.00,,,0.00,VWS V14.01,2013-04-12 06:43:00,
2013-04-12 02:44:00,45.6,44.2,29.85,ENE,64,8.7,8.7,95,0.00,,,0.00,VWS V14.01,2013-04-12 06:44:00,
2013-04-12 02:45:00,45.6,44.2,29.85,ENE,64,4.0,10.1,95,0.00,,,0.00,VWS V14.01,2013-04-12 06:45:00,
2013-04-12 02:46:00,45.6,44.2,29.85,ENE,62,6.3,10.1,95,0.00,,,0.00,VWS V14.01,2013-04-12 06:46:00,
2013-04-12 02:47:00,45.6,44.2,29.85,ENE,72,4.0,6.3,95,0.00,,,0.00,VWS V14.01,2013-04-12 06:47:00,
2013-04-12 02:48:00,45.6,44.2,29.85,East,100,5.4,8.3,95,0.00,,,0.00,VWS V14.01,2013-04-12 06:48:00,
2013-04-12 02:49:00,45.6,44.2,29.85,ENE,74,8.1,8.1,95,0.00,,,0.00,VWS V14.01,2013-04-12 06:49:00,
2013-04-12 02:50:00,45.6,44.2,29.85,ENE,63,7.6,7.6,95,0.00,,,0.00,VWS V14.01,2013-04-12 06:50:00,
2013-04-12 02:51:00,45.6,44.2,29.85,ESE,102,11.0,11.4,95,0.00,,,0.00,VWS V14.01,2013-04-12 06:51:00,
2013-04-12 02:52:00,45.6,44.2,29.83,ENE,73,7.6,11.0,95,0.00,,,0.00,VWS V14.01,2013-04-12 06:52:00,
2013-04-12 02:53:00,45.6,44.2,29.83,NE,50,8.3,10.1,95,0.00,,,0.00,VWS V14.01,2013-04-12 06:53:00,
2013-04-12 02:54:00,45.6,44.2,29.83,ENE,62,2.7,8.7,95,0.00,,,0.00,VWS V14.01,2013-04-12 06:54:00,
2013-04-12 02:55:00,45.6,44.2,29.83,ENE,60,6.3,8.3,95,0.00,,,0.00,VWS V14.01,2013-04-12 06:55:00,
2013-04-12 02:56:00,45.6,44.2,29.83,ENE,59,8.1,8.7,95,0.00,,,0.00,VWS V14.01,2013-04-12 06:56:00,
2013-04-12 02:57:00,45.6,44.2,29.83,ENE,59,5.8,8.1,95,0.00,,,0.00,VWS V14.01,2013-04-12 06:57:00,
2013-04-12 02:58:00,45.6,44.2,29.83,NE,55,5.4,6.3,95,0.00,,,0.00,VWS V14.01,2013-04-12 06:58:00,
2013-04-12 02:59:00,45.6,44.2,29.83,ENE,59,8.1,8.3,95,0.00,,,0.00,VWS V14.01,2013-04-12 06:59:00,
2013-04-12 03:00:00,45.6,44.2,29.83,East,83,9.2,9.2,95,0.00,,,0.00,VWS V14.01,2013-04-12 07:00:00,
2013-04-12 03:01:00,45.6,44.2,29.83,East,90,5.8,9.2,95,0.00,,,0.00,VWS V14.01,2013-04-12 07:01:00,
2013-04-12 03:02:00,45.4,44.1,29.83,NE,55,8.1,8.1,95,0.00,,,0.00,VWS V14.01,2013-04-12 07:02:00,
2013-04-12 03:03:00,45.4,44.1,29.83,ENE,61,8.1,8.1,95,0.00,,,0.00,VWS V14.01,2013-04-12 07:03:00,
2013-04-12 03:04:00,45.4,44.1,29.83,NE,44,9.2,10.5,95,0.00,,,0.00,VWS V14.01,2013-04-12 07:04:00,
2013-04-12 03:05:00,45.4,44.1,29.83,ENE,66,7.6,7.6,95,0.00,,,0.00,VWS V14.01,2013-04-12 07:05:00,
2013-04-12 03:06:00,45.4,44.1,29.83,East,81,3.1,7.6,95,0.00,,,0.00,VWS V14.01,2013-04-12 07:06:00,
2013-04-12 03:07:00,45.4,44.1,29.83,ESE,109,10.1,13.2,95,0.00,,,0.00,VWS V14.01,2013-04-12 07:07:00,
2013-04-12 03:08:00,45.4,44.1,29.83,ENE,68,8.7,10.1,95,0.00,,,0.00,VWS V14.01,2013-04-12 07:08:00,
2013-04-12 03:09:00,45.4,44.1,29.83,ENE,75,8.1,11.0,95,0.00,,,0.00,VWS V14.01,2013-04-12 07:09:00,
2013-04-12 03:10:00,45.4,44.1,29.83,SW,221,8.3,12.8,95,0.00,,,0.00,VWS V14.01,2013-04-12 07:10:00,
2013-04-12 03:11:00,45.4,44.1,29.83,East,91,4.0,12.8,95,0.00,,,0.00,VWS V14.01,2013-04-12 07:11:00,
2013-04-12 03:12:00,45.4,44.1,29.83,ENE,70,7.6,10.5,95,0.00,,,0.00,VWS V14.01,2013-04-12 07:12:00,
2013-04-12 03:13:00,45.4,44.1,29.83,East,101,8.7,8.7,95,0.00,,,0.00,VWS V14.01,2013-04-12 07:13:00,
2013-04-12 03:14:00,45.4,44.1,29.83,ENE,62,8.1,10.5,95,0.00,,,0.00,VWS V14.01,2013-04-12 07:14:00,
2013-04-12 03:15:00,45.4,44.1,29.83,NE,51,5.4,14.1,95,0.00,,,0.00,VWS V14.01,2013-04-12 07:15:00,
2013-04-12 03:16:00,45.4,44.1,29.83,East,84,5.8,14.1,95,0.00,,,0.00,VWS V14.01,2013-04-12 07:16:00,
2013-04-12 03:17:00,45.4,44.1,29.83,ENE,72,4.0,10.1,95,0.00,,,0.00,VWS V14.01,2013-04-12 07:17:00,
2013-04-12 03:18:00,45.4,44.1,29.83,East,84,6.3,6.3,95,0.00,,,0.00,VWS V14.01,2013-04-12 07:18:00,
2013-04-12 03:19:00,45.4,44.1,29.83,ENE,78,8.3,11.0,95,0.00,,,0.00,VWS V14.01,2013-04-12 07:19:00,
2013-04-12 03:20:00,45.4,44.1,29.83,East,86,7.2,8.3,95,0.00,,,0.00,VWS V14.01,2013-04-12 07:20:00,
2013-04-12 03:21:00,45.4,44.1,29.83,ENE,65,4.9,11.0,95,0.00,,,0.00,VWS V14.01,2013-04-12 07:21:00,
2013-04-12 03:22:00,45.4,44.1,29.83,ENE,74,7.6,7.6,95,0.00,,,0.00,VWS V14.01,2013-04-12 07:22:00,
2013-04-12 03:23:00,45.4,44.1,29.83,East,100,5.4,9.2,95,0.00,,,0.00,VWS V14.01,2013-04-12 07:23:00,
2013-04-12 03:24:00,45.4,44.1,29.83,East,82,5.8,6.3,95,0.00,,,0.00,VWS V14.01,2013-04-12 07:24:00,
2013-04-12 03:25:00,45.4,44.1,29.83,ENE,74,8.3,8.3,95,0.00,,,0.00,VWS V14.01,2013-04-12 07:25:00,
2013-04-12 03:26:00,45.4,44.1,29.83,ENE,73,6.3,6.3,95,0.00,,,0.00,VWS V14.01,2013-04-12 07:26:00,
2013-04-12 03:27:00,45.4,44.1,29.83,ENE,68,8.3,12.3,95,0.00,,,0.00,VWS V14.01,2013-04-12 07:27:00,
2013-04-12 03:28:00,45.4,44.1,29.83,East,85,9.2,9.2,95,0.00,,,0.00,VWS V14.01,2013-04-12 07:28:00,
2013-04-12 03:29:00,45.4,44.1,29.83,ENE,59,8.1,9.6,95,0.00,,,0.00,VWS V14.01,2013-04-12 07:29:00,
2013-04-12 03:30:00,45.4,44.3,29.83,ESE,106,8.1,10.1,96,0.00,,,0.00,VWS V14.01,2013-04-12 07:30:00,
2013-04-12 03:31:00,45.4,44.3,29.83,East,96,9.6,12.3,96,0.00,,,0.00,VWS V14.01,2013-04-12 07:31:00,
2013-04-12 03:32:00,45.4,44.3,29.83,ENE,64,10.1,12.3,96,0.00,,,0.00,VWS V14.01,2013-04-12 07:32:00,
2013-04-12 03:33:00,45.4,44.3,29.83,ENE,62,10.5,11.4,96,0.00,,,0.00,VWS V14.01,2013-04-12 07:33:00,
2013-04-12 03:34:00,45.4,44.3,29.83,ENE,65,5.8,10.5,96,0.00,,,0.00,VWS V14.01,2013-04-12 07:34:00,
2013-04-12 03:35:00,45.4,44.3,29.83,ENE,61,8.3,12.3,96,0.00,,,0.00,VWS V14.01,2013-04-12 07:35:00,
2013-04-12 03:36:00,45.4,44.3,29.83,ENE,73,7.6,7.6,96,0.00,,,0.00,VWS V14.01,2013-04-12 07:36:00,
2013-04-12 03:37:00,45.4,44.3,29.83,ESE,119,6.3,10.1,96,0.00,,,0.00,VWS V14.01,2013-04-12 07:37:00,
2013-04-12 03:38:00,45.4,44.3,29.83,East,87,12.3,12.3,96,0.00,,,0.00,VWS V14.01,2013-04-12 07:38:00,
2013-04-12 03:39:00,45.4,44.3,29.83,ESE,118,11.0,12.3,96,0.00,,,0.00,VWS V14.01,2013-04-12 07:39:00,
2013-04-12 03:40:00,45.4,44.3,29.83,ENE,57,8.1,11.0,96,0.00,,,0.00,VWS V14.01,2013-04-12 07:40:00,
2013-04-12 03:41:00,45.4,44.3,29.83,East,86,3.1,4.9,96,0.00,,,0.00,VWS V14.01,2013-04-12 07:41:00,
2013-04-12 03:42:00,45.4,44.3,29.83,East,90,5.4,5.4,96,0.00,,,0.00,VWS V14.01,2013-04-12 07:42:00,
2013-04-12 03:43:00,45.4,44.3,29.83,East,81,6.3,8.3,96,0.00,,,0.00,VWS V14.01,2013-04-12 07:43:00,
2013-04-12 03:44:00,45.4,44.3,29.83,ENE,68,5.4,9.2,96,0.00,,,0.00,VWS V14.01,2013-04-12 07:44:00,
2013-04-12 03:45:00,45.4,44.3,29.83,ENE,76,6.3,7.6,96,0.00,,,0.00,VWS V14.01,2013-04-12 07:45:00,
2013-04-12 03:46:00,45.4,44.3,29.83,NE,56,8.1,8.1,96,0.00,,,0.00,VWS V14.01,2013-04-12 07:46:00,
2013-04-12 03:47:00,45.4,44.3,29.83,ENE,72,8.1,11.0,96,0.00,,,0.00,VWS V14.01,2013-04-12 07:47:00,
2013-04-12 03:48:00,45.4,44.3,29.83,East,86,6.7,8.1,96,0.00,,,0.00,VWS V14.01,2013-04-12 07:48:00,
2013-04-12 03:49:00,45.4,44.3,29.83,ENE,73,4.0,8.3,96,0.00,,,0.00,VWS V14.01,2013-04-12 07:49:00,
2013-04-12 03:50:00,45.4,44.3,29.83,ENE,74,13.2,13.2,96,0.00,,,0.00,VWS V14.01,2013-04-12 07:50:00,
2013-04-12 03:51:00,45.4,44.3,29.83,ENE,58,13.2,13.2,96,0.00,,,0.00,VWS V14.01,2013-04-12 07:51:00,
2013-04-12 03:52:00,45.4,44.3,29.83,NE,50,8.1,13.2,96,0.00,,,0.00,VWS V14.01,2013-04-12 07:52:00,
2013-04-12 03:53:00,45.4,44.3,29.83,ENE,77,7.6,8.1,96,0.00,,,0.00,VWS V14.01,2013-04-12 07:53:00,
2013-04-12 03:54:00,45.4,44.3,29.83,ENE,72,4.0,7.6,96,0.00,,,0.00,VWS V14.01,2013-04-12 07:54:00,
2013-04-12 03:55:00,45.4,44.3,29.83,ENE,77,5.4,6.7,96,0.00,,,0.00,VWS V14.01,2013-04-12 07:55:00,
2013-04-12 03:56:00,45.4,44.3,29.83,ENE,68,8.7,8.7,96,0.00,,,0.00,VWS V14.01,2013-04-12 07:56:00,
2013-04-12 03:57:00,45.4,44.3,29.83,ENE,76,6.3,8.7,96,0.00,,,0.00,VWS V14.01,2013-04-12 07:57:00,
2013-04-12 03:58:00,45.4,44.3,29.83,East,91,5.8,6.3,96,0.00,,,0.00,VWS V14.01,2013-04-12 07:58:00,
2013-04-12 03:59:00,45.4,44.3,29.83,East,92,8.1,10.5,96,0.00,,,0.00,VWS V14.01,2013-04-12 07:59:00,
2013-04-12 04:00:00,45.4,44.3,29.83,ENE,70,5.4,8.7,96,0.00,,,0.00,VWS V14.01,2013-04-12 08:00:00,
2013-04-12 04:01:00,45.4,44.3,29.83,ENE,74,8.7,10.1,96,0.00,,,0.00,VWS V14.01,2013-04-12 08:01:00,
2013-04-12 04:02:00,45.4,44.3,29.83,SE,128,5.8,8.7,96,0.00,,,0.00,VWS V14.01,2013-04-12 08:02:00,
2013-04-12 04:03:00,45.4,44.3,29.83,ENE,60,6.3,6.3,96,0.00,,,0.00,VWS V14.01,2013-04-12 08:03:00,
2013-04-12 04:04:00,45.4,44.3,29.83,ENE,65,2.2,6.3,96,0.00,,,0.00,VWS V14.01,2013-04-12 08:04:00,
2013-04-12 04:05:00,45.6,44.5,29.83,NE,55,3.1,4.0,96,0.00,,,0.00,VWS V14.01,2013-04-12 08:05:00,
2013-04-12 04:06:00,45.6,44.5,29.83,SSE,153,6.3,7.2,96,0.00,,,0.00,VWS V14.01,2013-04-12 08:06:00,
2013-04-12 04:07:00,45.6,44.5,29.83,NE,51,6.7,6.7,96,0.00,,,0.00,VWS V14.01,2013-04-12 08:07:00,
2013-04-12 04:08:00,45.6,44.5,29.83,ENE,63,6.3,8.3,96,0.00,,,0.00,VWS V14.01,2013-04-12 08:08:00,
2013-04-12 04:09:00,45.6,44.5,29.83,NE,50,6.3,6.3,96,0.00,,,0.00,VWS V14.01,2013-04-12 08:09:00,
2013-04-12 04:10:00,45.6,44.5,29.83,ENE,66,6.3,10.1,96,0.00,,,0.00,VWS V14.01,2013-04-12 08:10:00,
2013-04-12 04:11:00,45.6,44.5,29.83,ENE,73,3.1,9.6,96,0.00,,,0.00,VWS V14.01,2013-04-12 08:11:00,
2013-04-12 04:12:00,45.6,44.5,29.83,ENE,58,6.3,6.3,96,0.00,,,0.00,VWS V14.01,2013-04-12 08:12:00,
2013-04-12 04:13:00,45.6,44.5,29.83,ENE,77,8.3,8.7,96,0.00,,,0.00,VWS V14.01,2013-04-12 08:13:00,
2013-04-12 04:14:00,45.6,44.5,29.83,ENE,74,6.3,8.7,96,0.00,,,0.00,VWS V14.01,2013-04-12 08:14:00,
2013-04-12 04:15:00,45.6,44.5,29.83,ENE,58,9.6,9.6,96,0.00,,,0.00,VWS V14.01,2013-04-12 08:15:00,
2013-04-12 04:16:00,45.6,44.5,29.83,NE,52,6.3,10.5,96,0.00,,,0.00,VWS V14.01,2013-04-12 08:16:00,
2013-04-12 04:17:00,45.6,44.5,29.83,East,83,5.8,5.8,96,0.00,,,0.00,VWS V14.01,2013-04-12 08:17:00,
2013-04-12 04:18:00,45.6,44.5,29.83,East,86,9.2,10.1,96,0.00,,,0.00,VWS V14.01,2013-04-12 08:18:00,
2013-04-12 04:19:00,45.6,44.5,29.83,ENE,76,10.5,10.5,96,0.00,,,0.00,VWS V14.01,2013-04-12 08:19:00,
2013-04-12 04:20:00,45.6,44.5,29.83,East,81,11.4,11.4,96,0.00,,,0.00,VWS V14.01,2013-04-12 08:20:00,
2013-04-12 04:21:00,45.6,44.5,29.83,ENE,62,12.8,13.2,96,0.00,,,0.00,VWS V14.01,2013-04-12 08:21:00,
2013-04-12 04:22:00,45.6,44.5,29.83,ENE,65,4.0,6.3,96,0.00,,,0.00,VWS V14.01,2013-04-12 08:22:00,
2013-04-12 04:23:00,45.6,44.5,29.83,ENE,72,10.5,10.5,96,0.00,,,0.00,VWS V14.01,2013-04-12 08:23:00,
2013-04-12 04:24:00,45.6,44.5,29.83,East,83,9.6,10.5,96,0.00,,,0.00,VWS V14.01,2013-04-12 08:24:00,
2013-04-12 04:25:00,45.6,44.5,29.83,ESE,113,3.6,9.6,96,0.00,,,0.00,VWS V14.01,2013-04-12 08:25:00,
2013-04-12 04:26:00,45.6,44.5,29.83,NE,36,2.7,6.3,96,0.00,,,0.00,VWS V14.01,2013-04-12 08:26:00,
2013-04-12 04:27:00,45.6,44.5,29.83,ENE,68,5.8,8.3,96,0.00,,,0.00,VWS V14.01,2013-04-12 08:27:00,
2013-04-12 04:28:00,45.6,44.5,29.83,ENE,59,5.8,8.3,96,0.00,,,0.00,VWS V14.01,2013-04-12 08:28:00,
2013-04-12 04:29:00,45.6,44.5,29.83,East,91,4.0,7.2,96,0.00,,,0.00,VWS V14.01,2013-04-12 08:29:00,
2013-04-12 04:30:00,45.6,44.5,29.83,ENE,70,11.0,11.0,96,0.00,,,0.00,VWS V14.01,2013-04-12 08:30:00,
2013-04-12 04:31:00,45.6,44.5,29.83,ENE,58,4.0,11.0,96,0.00,,,0.00,VWS V14.01,2013-04-12 08:31:00,
2013-04-12 04:32:00,45.6,44.5,29.83,ENE,77,11.0,11.0,96,0.00,,,0.00,VWS V14.01,2013-04-12 08:32:00,
2013-04-12 04:33:00,45.6,44.5,29.83,East,81,8.1,11.0,96,0.00,,,0.00,VWS V14.01,2013-04-12 08:33:00,
2013-04-12 04:34:00,45.6,44.5,29.83,East,83,8.3,12.3,96,0.00,,,0.00,VWS V14.01,2013-04-12 08:34:00,
2013-04-12 04:35:00,45.4,44.6,29.83,ENE,73,5.4,8.3,97,0.00,,,0.00,VWS V14.01,2013-04-12 08:35:00,
2013-04-12 04:36:00,45.4,44.6,29.83,ENE,75,6.3,11.4,97,0.00,,,0.00,VWS V14.01,2013-04-12 08:36:00,
2013-04-12 04:37:00,45.4,44.6,29.83,NE,49,5.8,6.3,97,0.00,,,0.00,VWS V14.01,2013-04-12 08:37:00,
2013-04-12 04:38:00,45.4,44.6,29.83,East,101,3.6,6.3,97,0.00,,,0.00,VWS V14.01,2013-04-12 08:38:00,
2013-04-12 04:39:00,45.4,44.6,29.83,ENE,63,6.3,9.6,97,0.00,,,0.00,VWS V14.01,2013-04-12 08:39:00,
2013-04-12 04:40:00,45.4,44.6,29.83,East,96,4.0,8.1,97,0.00,,,0.00,VWS V14.01,2013-04-12 08:40:00,
2013-04-12 04:41:00,45.4,44.6,29.83,ENE,73,8.1,8.1,97,0.00,,,0.00,VWS V14.01,2013-04-12 08:41:00,
2013-04-12 04:42:00,45.4,44.6,29.83,ENE,67,8.1,8.1,97,0.00,,,0.00,VWS V14.01,2013-04-12 08:42:00,
2013-04-12 04:43:00,45.4,44.6,29.83,ENE,67,8.1,8.1,97,0.00,,,0.00,VWS V14.01,2013-04-12 08:43:00,
2013-04-12 04:44:00,45.4,44.6,29.83,ENE,65,8.1,8.1,97,0.00,,,0.00,VWS V14.01,2013-04-12 08:44:00,
2013-04-12 04:45:00,45.4,44.6,29.83,NE,53,4.9,8.1,97,0.00,,,0.00,VWS V14.01,2013-04-12 08:45:00,
2013-04-12 04:46:00,45.4,44.6,29.83,ENE,66,8.7,8.7,97,0.00,,,0.00,VWS V14.01,2013-04-12 08:46:00,
2013-04-12 04:47:00,45.4,44.6,29.83,East,94,5.8,11.0,97,0.00,,,0.00,VWS V14.01,2013-04-12 08:47:00,
2013-04-12 04:48:00,45.4,44.6,29.83,ENE,62,5.8,5.8,97,0.00,,,0.00,VWS V14.01,2013-04-12 08:48:00,
2013-04-12 04:49:00,45.4,44.6,29.83,ENE,66,6.3,10.1,97,0.00,,,0.00,VWS V14.01,2013-04-12 08:49:00,
2013-04-12 04:50:00,45.2,44.4,29.83,ENE,64,8.3,9.2,97,0.00,,,0.00,VWS V14.01,2013-04-12 08:50:00,
2013-04-12 04:51:00,45.2,44.4,29.83,ESE,110,5.8,8.7,97,0.00,,,0.00,VWS V14.01,2013-04-12 08:51:00,
2013-04-12 04:52:00,45.2,44.4,29.83,ENE,72,7.6,9.6,97,0.00,,,0.00,VWS V14.01,2013-04-12 08:52:00,
2013-04-12 04:53:00,45.2,44.4,29.83,ENE,63,5.8,10.1,97,0.00,,,0.00,VWS V14.01,2013-04-12 08:53:00,
2013-04-12 04:54:00,45.2,44.4,29.83,East,84,6.7,6.7,97,0.00,,,0.00,VWS V14.01,2013-04-12 08:54:00,
2013-04-12 04:55:00,45.2,44.4,29.83,NE,47,2.7,6.7,97,0.00,,,0.00,VWS V14.01,2013-04-12 08:55:00,
2013-04-12 04:56:00,45.2,44.4,29.83,ENE,69,5.8,8.3,97,0.00,,,0.00,VWS V14.01,2013-04-12 08:56:00,
2013-04-12 04:57:00,45.2,44.4,29.83,ENE,71,4.9,5.8,97,0.00,,,0.00,VWS V14.01,2013-04-12 08:57:00,
2013-04-12 04:58:00,45.2,44.4,29.83,ENE,69,4.9,6.7,97,0.00,,,0.00,VWS V14.01,2013-04-12 08:58:00,
2013-04-12 04:59:00,45.2,44.4,29.83,ENE,73,5.4,5.4,97,0.00,,,0.00,VWS V14.01,2013-04-12 08:59:00,
2013-04-12 05:00:00,45.2,44.4,29.83,East,84,8.3,8.3,97,0.00,,,0.00,VWS V14.01,2013-04-12 09:00:00,
2013-04-12 05:01:00,45.2,44.4,29.83,ENE,63,8.7,14.1,97,0.00,,,0.00,VWS V14.01,2013-04-12 09:01:00,
2013-04-12 05:02:00,45.2,44.4,29.83,ENE,62,12.8,12.8,97,0.00,,,0.00,VWS V14.01,2013-04-12 09:02:00,
2013-04-12 05:03:00,45.2,44.4,29.83,ENE,76,5.8,12.8,97,0.00,,,0.00,VWS V14.01,2013-04-12 09:03:00,
2013-04-12 05:04:00,45.2,44.4,29.83,ENE,57,5.4,6.7,97,0.00,,,0.00,VWS V14.01,2013-04-12 09:04:00,
2013-04-12 05:05:00,45.2,44.4,29.83,NE,50,4.5,5.4,97,0.00,,,0.00,VWS V14.01,2013-04-12 09:05:00,
2013-04-12 05:06:00,45.2,44.4,29.83,ENE,76,3.6,6.3,97,0.00,,,0.00,VWS V14.01,2013-04-12 09:06:00,
2013-04-12 05:07:00,45.2,44.4,29.80,NE,35,8.7,8.7,97,0.00,,,0.00,VWS V14.01,2013-04-12 09:07:00,
2013-04-12 05:08:00,45.2,44.4,29.80,ESE,113,11.0,15.0,97,0.00,,,0.00,VWS V14.01,2013-04-12 09:08:00,
2013-04-12 05:09:00,45.2,44.4,29.80,NE,51,6.3,11.0,97,0.00,,,0.00,VWS V14.01,2013-04-12 09:09:00,
2013-04-12 05:10:00,45.2,44.4,29.80,ENE,69,4.9,10.5,97,0.00,,,0.00,VWS V14.01,2013-04-12 09:10:00,
2013-04-12 05:11:00,45.2,44.4,29.80,East,84,7.6,8.7,97,0.00,,,0.00,VWS V14.01,2013-04-12 09:11:00,
2013-04-12 05:12:00,45.2,44.4,29.80,NE,47,8.1,8.1,97,0.00,,,0.00,VWS V14.01,2013-04-12 09:12:00,
2013-04-12 05:13:00,45.2,44.4,29.80,NNE,24,8.3,8.3,97,0.00,,,0.00,VWS V14.01,2013-04-12 09:13:00,
2013-04-12 05:14:00,45.2,44.4,29.80,NE,44,8.3,8.7,97,0.00,,,0.00,VWS V14.01,2013-04-12 09:14:00,
2013-04-12 05:15:00,45.2,44.4,29.80,ENE,68,5.8,8.3,97,0.00,,,0.00,VWS V14.01,2013-04-12 09:15:00,
2013-04-12 05:16:00,45.2,44.4,29.80,ENE,61,8.3,9.2,97,0.00,,,0.00,VWS V14.01,2013-04-12 09:16:00,
2013-04-12 05:17:00,45.2,44.4,29.80,East,80,5.8,8.3,97,0.00,,,0.00,VWS V14.01,2013-04-12 09:17:00,
2013-04-12 05:18:00,45.2,44.4,29.80,ESE,111,8.7,8.7,97,0.00,,,0.00,VWS V14.01,2013-04-12 09:18:00,
2013-04-12 05:19:00,45.2,44.4,29.80,ENE,61,5.8,8.7,97,0.00,,,0.00,VWS V14.01,2013-04-12 09:19:00,
2013-04-12 05:20:00,45.2,44.4,29.80,NE,56,7.2,10.5,97,0.00,,,0.00,VWS V14.01,2013-04-12 09:20:00,
2013-04-12 05:21:00,45.2,44.4,29.80,ENE,77,5.8,7.6,97,0.00,,,0.00,VWS V14.01,2013-04-12 09:21:00,
2013-04-12 05:22:00,45.2,44.4,29.80,ENE,69,3.6,6.3,97,0.00,,,0.00,VWS V14.01,2013-04-12 09:22:00,
2013-04-12 05:23:00,45.2,44.4,29.80,ENE,72,7.6,8.3,97,0.00,,,0.00,VWS V14.01,2013-04-12 09:23:00,
2013-04-12 05:24:00,45.2,44.4,29.80,East,90,6.7,8.3,97,0.00,,,0.00,VWS V14.01,2013-04-12 09:24:00,
2013-04-12 05:25:00,45.2,44.4,29.80,East,96,6.3,7.6,97,0.00,,,0.00,VWS V14.01,2013-04-12 09:25:00,
2013-04-12 05:26:00,45.2,44.4,29.80,ENE,62,8.7,12.3,97,0.04,,,0.04,VWS V14.01,2013-04-12 09:26:00,
2013-04-12 05:27:00,45.2,44.4,29.80,NE,46,10.5,10.5,97,0.04,,,0.04,VWS V14.01,2013-04-12 09:27:00,
2013-04-12 05:28:00,45.2,44.4,29.80,ENE,77,5.4,8.7,97,0.04,,,0.04,VWS V14.01,2013-04-12 09:28:00,
2013-04-12 05:29:00,45.2,44.4,29.80,ENE,72,6.3,8.7,97,0.04,,,0.04,VWS V14.01,2013-04-12 09:29:00,
2013-04-12 05:30:00,45.2,44.4,29.80,ENE,66,9.2,9.2,97,0.04,,,0.04,VWS V14.01,2013-04-12 09:30:00,
2013-04-12 05:31:00,45.2,44.4,29.80,ENE,57,5.8,9.2,97,0.04,,,0.04,VWS V14.01,2013-04-12 09:31:00,
2013-04-12 05:32:00,45.2,44.4,29.80,ESE,104,5.8,8.7,97,0.04,,,0.04,VWS V14.01,2013-04-12 09:32:00,
2013-04-12 05:33:00,45.2,44.4,29.80,ESE,120,8.1,12.3,97,0.04,,,0.04,VWS V14.01,2013-04-12 09:33:00,
2013-04-12 05:34:00,45.2,44.4,29.80,ESE,120,8.1,12.3,97,0.04,,,0.04,VWS V14.01,2013-04-12 09:34:00,
2013-04-12 05:35:00,45.2,44.4,29.80,ENE,74,14.1,14.1,97,0.04,,,0.04,VWS V14.01,2013-04-12 09:35:00,
2013-04-12 05:36:00,45.2,44.4,29.80,ENE,63,4.9,14.1,97,0.04,,,0.04,VWS V14.01,2013-04-12 09:36:00,
2013-04-12 05:37:00,45.2,44.4,29.80,ENE,59,3.6,6.3,97,0.04,,,0.04,VWS V14.01,2013-04-12 09:37:00,
2013-04-12 05:38:00,45.2,44.4,29.80,East,83,4.9,7.6,97,0.04,,,0.04,VWS V14.01,2013-04-12 09:38:00,
2013-04-12 05:39:00,45.2,44.4,29.80,ENE,66,6.3,7.6,97,0.04,,,0.04,VWS V14.01,2013-04-12 09:39:00,
2013-04-12 05:40:00,45.2,44.4,29.80,East,83,6.3,6.3,97,0.04,,,0.04,VWS V14.01,2013-04-12 09:40:00,
2013-04-12 05:41:00,45.2,44.4,29.80,East,92,3.1,6.3,97,0.04,,,0.04,VWS V14.01,2013-04-12 09:41:00,
2013-04-12 05:42:00,45.2,44.4,29.80,ENE,58,8.7,10.1,97,0.04,,,0.04,VWS V14.01,2013-04-12 09:42:00,
2013-04-12 05:43:00,45.2,44.4,29.80,ENE,62,12.3,12.3,97,0.04,,,0.04,VWS V14.01,2013-04-12 09:43:00,
2013-04-12 05:44:00,45.2,44.4,29.80,NE,56,10.1,12.3,97,0.04,,,0.04,VWS V14.01,2013-04-12 09:44:00,
2013-04-12 05:45:00,45.2,44.4,29.80,NE,54,8.1,10.1,97,0.04,,,0.04,VWS V14.01,2013-04-12 09:45:00,
2013-04-12 05:46:00,45.2,44.4,29.80,ENE,57,5.8,8.1,97,0.04,,,0.04,VWS V14.01,2013-04-12 09:46:00,
2013-04-12 05:47:00,45.2,44.4,29.80,SSE,158,6.7,6.7,97,0.04,,,0.04,VWS V14.01,2013-04-12 09:47:00,
2013-04-12 05:48:00,45.2,44.4,29.80,NNE,33,8.1,8.7,97,0.04,,,0.04,VWS V14.01,2013-04-12 09:48:00,
2013-04-12 05:49:00,45.2,44.4,29.80,ENE,70,7.6,12.3,97,0.04,,,0.04,VWS V14.01,2013-04-12 09:49:00,
2013-04-12 05:50:00,45.2,44.4,29.80,ENE,65,5.8,8.3,97,0.04,,,0.04,VWS V14.01,2013-04-12 09:50:00,
2013-04-12 05:51:00,45.2,44.4,29.80,ENE,73,5.8,8.1,97,0.04,,,0.04,VWS V14.01,2013-04-12 09:51:00,
2013-04-12 05:52:00,45.2,44.4,29.77,East,79,5.8,8.1,97,0.04,,,0.04,VWS V14.01,2013-04-12 09:52:00,
2013-04-12 05:53:00,45.2,44.4,29.77,ENE,64,6.3,6.3,97,0.04,,,0.04,VWS V14.01,2013-04-12 09:53:00,
2013-04-12 05:54:00,45.2,44.4,29.77,ENE,69,5.4,6.3,97,0.04,,,0.04,VWS V14.01,2013-04-12 09:54:00,
2013-04-12 05:55:00,45.2,44.4,29.77,ENE,65,5.4,8.3,97,0.04,,,0.04,VWS V14.01,2013-04-12 09:55:00,
2013-04-12 05:56:00,45.2,44.4,29.77,WSW,256,8.7,8.7,97,0.04,,,0.04,VWS V14.01,2013-04-12 09:56:00,
2013-04-12 05:57:00,45.2,44.7,29.77,East,88,11.0,11.4,98,0.04,,,0.04,VWS V14.01,2013-04-12 09:57:00,
2013-04-12 05:58:00,45.2,44.7,29.77,East,90,7.6,11.0,98,0.04,,,0.04,VWS V14.01,2013-04-12 09:58:00,
2013-04-12 05:59:00,45.2,44.7,29.77,ESE,102,7.6,7.6,98,0.04,,,0.04,VWS V14.01,2013-04-12 09:59:00,
2013-04-12 06:00:00,45.2,44.7,29.77,ENE,72,6.7,8.1,98,0.04,,,0.04,VWS V14.01,2013-04-12 10:00:00,
2013-04-12 06:01:00,45.2,44.7,29.77,East,88,8.7,9.6,98,0.04,,,0.04,VWS V14.01,2013-04-12 10:01:00,
2013-04-12 06:02:00,45.2,44.7,29.77,ESE,107,12.3,12.8,98,0.04,,,0.04,VWS V14.01,2013-04-12 10:02:00,
2013-04-12 06:03:00,45.2,44.7,29.77,ENE,71,12.3,14.5,98,0.04,,,0.04,VWS V14.01,2013-04-12 10:03:00,
2013-04-12 06:04:00,45.2,44.7,29.77,ESE,110,7.6,8.1,98,0.04,,,0.04,VWS V14.01,2013-04-12 10:04:00,
2013-04-12 06:05:00,45.2,44.7,29.77,ENE,78,5.8,8.1,98,0.04,,,0.04,VWS V14.01,2013-04-12 10:05:00,
2013-04-12 06:06:00,45.2,44.7,29.77,ENE,64,8.7,8.7,98,0.04,,,0.04,VWS V14.01,2013-04-12 10:06:00,
2013-04-12 06:07:00,45.2,44.7,29.77,ESE,105,10.5,10.5,98,0.04,,,0.04,VWS V14.01,2013-04-12 10:07:00,
2013-04-12 06:08:00,45.2,44.7,29.77,ESE,107,6.3,10.5,98,0.04,,,0.04,VWS V14.01,2013-04-12 10:08:00,
2013-04-12 06:09:00,45.2,44.7,29.77,East,87,8.7,8.7,98,0.04,,,0.04,VWS V14.01,2013-04-12 10:09:00,
2013-04-12 06:10:00,45.2,44.7,29.77,ENE,75,9.6,9.6,98,0.04,,,0.04,VWS V14.01,2013-04-12 10:10:00,
2013-04-12 06:11:00,45.2,44.7,29.77,ENE,69,8.3,10.5,98,0.04,,,0.04,VWS V14.01,2013-04-12 10:11:00,
2013-04-12 06:12:00,45.2,44.7,29.77,East,100,6.3,8.7,98,0.04,,,0.04,VWS V14.01,2013-04-12 10:12:00,
2013-04-12 06:13:00,45.2,44.7,29.77,NE,53,8.3,10.5,98,0.04,,,0.04,VWS V14.01,2013-04-12 10:13:00,
2013-04-12 06:14:00,45.2,44.7,29.77,NE,56,6.3,12.8,98,0.04,,,0.04,VWS V14.01,2013-04-12 10:14:00,
2013-04-12 06:15:00,45.2,44.7,29.77,ENE,63,12.3,12.8,98,0.04,,,0.04,VWS V14.01,2013-04-12 10:15:00,
2013-04-12 06:16:00,45.2,44.7,29.77,ENE,61,8.1,12.3,98,0.04,,,0.04,VWS V14.01,2013-04-12 10:16:00,
2013-04-12 06:17:00,45.2,44.7,29.77,ENE,78,12.8,15.4,98,0.04,,,0.04,VWS V14.01,2013-04-12 10:17:00,
2013-04-12 06:18:00,45.2,44.7,29.77,NE,54,10.5,12.8,98,0.04,,,0.04,VWS V14.01,2013-04-12 10:18:00,
2013-04-12 06:19:00,45.1,44.5,29.77,ENE,61,9.6,15.0,98,0.04,,,0.04,VWS V14.01,2013-04-12 10:19:00,
2013-04-12 06:20:00,45.1,44.5,29.77,East,87,10.1,15.0,98,0.04,,,0.04,VWS V14.01,2013-04-12 10:20:00,
2013-04-12 06:21:00,45.1,44.5,29.77,East,89,12.8,12.8,98,0.04,,,0.04,VWS V14.01,2013-04-12 10:21:00,
2013-04-12 06:22:00,45.1,44.5,29.77,NE,50,15.4,15.4,98,0.04,,,0.04,VWS V14.01,2013-04-12 10:22:00,
2013-04-12 06:23:00,45.1,44.5,29.77,ENE,60,6.3,15.4,98,0.04,,,0.04,VWS V14.01,2013-04-12 10:23:00,
2013-04-12 06:24:00,45.1,44.5,29.77,ENE,72,3.6,8.1,98,0.04,,,0.04,VWS V14.01,2013-04-12 10:24:00,
2013-04-12 06:25:00,45.1,44.5,29.77,ENE,78,6.7,8.1,98,0.04,,,0.04,VWS V14.01,2013-04-12 10:25:00,
2013-04-12 06:26:00,45.1,44.5,29.77,NE,55,8.1,9.6,98,0.04,,,0.04,VWS V14.01,2013-04-12 10:26:00,
2013-04-12 06:27:00,45.1,44.5,29.77,East,84,8.1,13.6,98,0.00,,,0.04,VWS V14.01,2013-04-12 10:27:00,
2013-04-12 06:28:00,45.1,44.5,29.77,ENE,75,6.3,10.5,98,0.00,,,0.04,VWS V14.01,2013-04-12 10:28:00,
2013-04-12 06:29:00,45.1,44.5,29.77,ENE,63,5.4,5.4,98,0.00,,,0.04,VWS V14.01,2013-04-12 10:29:00,
2013-04-12 06:30:00,45.1,44.5,29.77,ENE,63,5.4,5.4,98,0.00,,,0.04,VWS V14.01,2013-04-12 10:30:00,
2013-04-12 06:31:00,45.1,44.5,29.77,NE,56,8.3,10.5,98,0.00,,,0.04,VWS V14.01,2013-04-12 10:31:00,
2013-04-12 06:32:00,45.1,44.5,29.77,ENE,57,9.6,10.1,98,0.00,,,0.04,VWS V14.01,2013-04-12 10:32:00,
2013-04-12 06:33:00,45.1,44.5,29.77,ESE,106,8.1,9.6,98,0.00,,,0.04,VWS V14.01,2013-04-12 10:33:00,
2013-04-12 06:34:00,45.1,44.5,29.77,ENE,70,8.7,13.2,98,0.00,,,0.04,VWS V14.01,2013-04-12 10:34:00,
2013-04-12 06:35:00,45.1,44.5,29.77,ENE,61,12.3,13.2,98,0.00,,,0.04,VWS V14.01,2013-04-12 10:35:00,
2013-04-12 06:36:00,45.1,44.3,29.77,NE,55,6.3,12.3,97,0.00,,,0.04,VWS V14.01,2013-04-12 10:36:00,
2013-04-12 06:37:00,45.1,44.3,29.77,ESE,102,7.6,9.2,97,0.00,,,0.04,VWS V14.01,2013-04-12 10:37:00,
2013-04-12 06:38:00,45.1,44.3,29.77,ENE,62,8.1,8.1,97,0.00,,,0.04,VWS V14.01,2013-04-12 10:38:00,
2013-04-12 06:39:00,45.1,44.3,29.77,East,81,4.0,8.7,97,0.00,,,0.04,VWS V14.01,2013-04-12 10:39:00,
2013-04-12 06:40:00,45.1,44.3,29.77,East,98,7.2,7.2,97,0.00,,,0.04,VWS V14.01,2013-04-12 10:40:00,
2013-04-12 06:41:00,45.1,44.3,29.77,East,96,8.1,9.2,97,0.00,,,0.04,VWS V14.01,2013-04-12 10:41:00,
2013-04-12 06:42:00,45.1,44.3,29.77,East,99,6.3,10.5,97,0.00,,,0.04,VWS V14.01,2013-04-12 10:42:00,
2013-04-12 06:43:00,45.1,44.3,29.77,NE,54,6.3,8.7,97,0.00,,,0.04,VWS V14.01,2013-04-12 10:43:00,
2013-04-12 06:44:00,45.1,44.3,29.77,ENE,65,9.2,9.2,97,0.00,,,0.04,VWS V14.01,2013-04-12 10:44:00,
2013-04-12 06:45:00,45.1,44.3,29.77,ENE,78,8.7,12.8,97,0.00,,,0.04,VWS V14.01,2013-04-12 10:45:00,
2013-04-12 06:46:00,45.1,44.3,29.77,NNE,33,6.3,11.4,97,0.00,,,0.04,VWS V14.01,2013-04-12 10:46:00,
2013-04-12 06:47:00,45.1,44.3,29.77,NE,45,5.8,6.3,97,0.00,,,0.04,VWS V14.01,2013-04-12 10:47:00,
2013-04-12 06:48:00,45.1,44.3,29.77,ENE,74,5.8,6.3,97,0.00,,,0.04,VWS V14.01,2013-04-12 10:48:00,
2013-04-12 06:49:00,45.1,44.3,29.77,NE,47,11.0,11.0,97,0.00,,,0.04,VWS V14.01,2013-04-12 10:49:00,
2013-04-12 06:50:00,45.1,44.3,29.77,ESE,102,12.8,12.8,97,0.00,,,0.04,VWS V14.01,2013-04-12 10:50:00,
2013-04-12 06:51:00,45.1,44.3,29.77,ENE,62,10.1,12.8,97,0.00,,,0.04,VWS V14.01,2013-04-12 10:51:00,
2013-04-12 06:52:00,45.1,44.3,29.77,NE,55,8.3,10.1,97,0.00,,,0.04,VWS V14.01,2013-04-12 10:52:00,
2013-04-12 06:53:00,45.1,44.3,29.77,East,90,12.3,12.3,97,0.00,,,0.04,VWS V14.01,2013-04-12 10:53:00,
2013-04-12 06:54:00,45.1,44.3,29.77,ENE,75,5.8,12.3,97,0.00,,,0.04,VWS V14.01,2013-04-12 10:54:00,
2013-04-12 06:55:00,45.1,44.3,29.77,NE,54,5.4,6.3,97,0.00,,,0.04,VWS V14.01,2013-04-12 10:55:00,
2013-04-12 06:56:00,45.1,44.3,29.77,East,97,10.1,10.1,97,0.00,,,0.04,VWS V14.01,2013-04-12 10:56:00,
2013-04-12 06:57:00,45.1,44.3,29.77,East,90,6.3,10.1,97,0.00,,,0.04,VWS V14.01,2013-04-12 10:57:00,
2013-04-12 06:58:00,45.1,44.3,29.77,East,80,7.6,8.7,97,0.00,,,0.04,VWS V14.01,2013-04-12 10:58:00,
2013-04-12 06:59:00,45.1,44.3,29.77,ENE,73,8.7,12.8,97,0.00,,,0.04,VWS V14.01,2013-04-12 10:59:00,
2013-04-12 07:00:00,44.9,44.1,29.77,ESE,108,8.3,12.8,97,0.00,,,0.04,VWS V14.01,2013-04-12 11:00:00,
2013-04-12 07:01:00,44.9,44.1,29.77,NE,34,8.3,8.3,97,0.00,,,0.04,VWS V14.01,2013-04-12 11:01:00,
2013-04-12 07:02:00,44.9,44.1,29.77,ESE,110,13.2,13.2,97,0.00,,,0.04,VWS V14.01,2013-04-12 11:02:00,
2013-04-12 07:03:00,44.9,44.1,29.77,ENE,62,10.1,15.9,97,0.00,,,0.04,VWS V14.01,2013-04-12 11:03:00,
2013-04-12 07:04:00,44.9,44.1,29.77,East,92,5.4,12.8,97,0.00,,,0.04,VWS V14.01,2013-04-12 11:04:00,
2013-04-12 07:05:00,44.9,44.1,29.77,East,85,7.6,11.0,97,0.00,,,0.04,VWS V14.01,2013-04-12 11:05:00,
2013-04-12 07:06:00,44.9,44.1,29.77,ENE,67,8.3,11.0,97,0.00,,,0.04,VWS V14.01,2013-04-12 11:06:00,
2013-04-12 07:07:00,44.9,44.1,29.77,ESE,103,10.1,10.5,97,0.00,,,0.04,VWS V14.01,2013-04-12 11:07:00,
2013-04-12 07:08:00,44.9,44.1,29.77,East,81,8.3,10.1,97,0.00,,,0.04,VWS V14.01,2013-04-12 11:08:00,
2013-04-12 07:09:00,44.9,44.1,29.77,ENE,74,10.1,12.3,97,0.00,,,0.04,VWS V14.01,2013-04-12 11:09:00,
2013-04-12 07:10:00,44.9,44.1,29.77,East,93,5.8,10.1,97,0.00,,,0.04,VWS V14.01,2013-04-12 11:10:00,
2013-04-12 07:11:00,44.9,44.1,29.77,ENE,74,5.8,9.6,97,0.00,,,0.04,VWS V14.01,2013-04-12 11:11:00,
2013-04-12 07:12:00,44.9,44.1,29.77,East,84,15.9,18.8,97,0.00,,,0.04,VWS V14.01,2013-04-12 11:12:00,
2013-04-12 07:13:00,44.9,44.1,29.77,ENE,65,13.2,15.9,97,0.00,,,0.04,VWS V14.01,2013-04-12 11:13:00,
2013-04-12 07:14:00,44.9,44.1,29.77,East,97,8.7,13.2,97,0.00,,,0.04,VWS V14.01,2013-04-12 11:14:00,
2013-04-12 07:15:00,44.9,44.1,29.77,NNW,344,8.1,13.2,97,0.00,,,0.04,VWS V14.01,2013-04-12 11:15:00,
2013-04-12 07:16:00,44.9,44.1,29.77,East,90,8.3,10.5,97,0.00,,,0.04,VWS V14.01,2013-04-12 11:16:00,
2013-04-12 07:17:00,44.9,44.1,29.77,East,90,8.7,8.7,97,0.00,,,0.04,VWS V14.01,2013-04-12 11:17:00,
2013-04-12 07:19:00,45.1,44.3,29.77,East,97,5.4,5.8,97,0.00,,,0.04,VWS V14.01,2013-04-12 11:19:00,
2013-04-12 07:20:00,45.1,44.3,29.77,NE,41,3.6,8.3,97,0.00,,,0.04,VWS V14.01,2013-04-12 11:20:00,
2013-04-12 07:21:00,45.1,44.3,29.77,ENE,77,9.2,10.5,97,0.00,,,0.04,VWS V14.01,2013-04-12 11:21:00,
2013-04-12 07:22:00,45.1,44.3,29.77,ESE,111,8.3,8.3,97,0.00,,,0.04,VWS V14.01,2013-04-12 11:22:00,
2013-04-12 07:23:00,44.9,44.1,29.77,ESE,118,6.3,9.2,97,0.00,,,0.04,VWS V14.01,2013-04-12 11:23:00,
2013-04-12 07:24:00,44.9,44.1,29.77,ENE,65,10.5,11.0,97,0.00,,,0.04,VWS V14.01,2013-04-12 11:24:00,
2013-04-12 07:25:00,45.1,44.3,29.77,NE,55,5.8,10.5,97,0.00,,,0.04,VWS V14.01,2013-04-12 11:25:00,
2013-04-12 07:26:00,45.1,44.3,29.77,East,91,6.3,6.3,97,0.00,,,0.04,VWS V14.01,2013-04-12 11:26:00,
2013-04-12 07:27:00,45.1,44.3,29.77,East,88,7.2,8.1,97,0.00,,,0.04,VWS V14.01,2013-04-12 11:27:00,
2013-04-12 07:28:00,45.1,44.3,29.77,East,90,7.6,8.1,97,0.00,,,0.04,VWS V14.01,2013-04-12 11:28:00,
2013-04-12 07:29:00,45.1,44.3,29.77,ENE,66,11.4,11.4,97,0.00,,,0.04,VWS V14.01,2013-04-12 11:29:00,
2013-04-12 07:30:00,44.9,44.1,29.77,ENE,68,9.2,12.8,97,0.00,,,0.04,VWS V14.01,2013-04-12 11:30:00,
2013-04-12 07:31:00,44.9,44.1,29.77,ENE,66,8.1,15.0,97,0.00,,,0.04,VWS V14.01,2013-04-12 11:31:00,
2013-04-12 07:32:00,44.9,44.1,29.77,East,91,8.7,14.5,97,0.00,,,0.04,VWS V14.01,2013-04-12 11:32:00,
2013-04-12 07:33:00,44.9,44.1,29.77,East,80,6.3,14.5,97,0.00,,,0.04,VWS V14.01,2013-04-12 11:33:00,
2013-04-12 07:34:00,44.9,44.1,29.77,NE,53,10.5,11.4,97,0.00,,,0.04,VWS V14.01,2013-04-12 11:34:00,
2013-04-12 07:35:00,44.9,44.1,29.77,ENE,67,11.0,11.0,97,0.00,,,0.04,VWS V14.01,2013-04-12 11:35:00,
2013-04-12 07:36:00,44.9,44.1,29.77,ENE,65,13.6,13.6,97,0.00,,,0.04,VWS V14.01,2013-04-12 11:36:00,
2013-04-12 07:37:00,44.9,44.1,29.77,NE,47,5.8,13.6,97,0.00,,,0.04,VWS V14.01,2013-04-12 11:37:00,
2013-04-12 07:38:00,44.9,44.1,29.77,ENE,58,8.3,10.5,97,0.00,,,0.04,VWS V14.01,2013-04-12 11:38:00,
2013-04-12 07:39:00,44.9,44.1,29.77,East,86,11.0,11.0,97,0.00,,,0.04,VWS V14.01,2013-04-12 11:39:00,
2013-04-12 07:40:00,44.9,44.1,29.77,ENE,67,4.5,11.0,97,0.00,,,0.04,VWS V14.01,2013-04-12 11:40:00,
2013-04-12 19:16:00,46.1,46.1,29.59,ENE,68,3.6,3.6,100,0.79,,,0.83,VWS V14.01,2013-04-12 23:16:00,
2013-04-12 19:17:00,46.1,46.1,29.59,ENE,68,0.0,3.6,100,0.00,,,0.83,VWS V14.01,2013-04-12 23:17:00,
2013-04-12 19:22:00,46.1,46.1,29.59,North,3,2.7,4.9,100,0.00,,,0.83,VWS V14.01,2013-04-12 23:22:00,
2013-04-12 19:27:00,46.1,46.1,29.59,NE,36,3.6,3.6,100,0.00,,,0.83,VWS V14.01,2013-04-12 23:27:00,
2013-04-12 19:33:00,46.1,46.1,29.59,NNE,18,2.2,4.0,100,0.00,,,0.83,VWS V14.01,2013-04-12 23:33:00,
2013-04-12 19:38:00,46.1,46.1,29.56,NNE,31,5.8,5.8,100,0.00,,,0.83,VWS V14.01,2013-04-12 23:38:00,
2013-04-12 19:43:00,46.1,46.1,29.56,NE,34,3.1,5.8,100,0.00,,,0.83,VWS V14.01,2013-04-12 23:43:00,
2013-04-12 19:48:00,46.1,46.1,29.56,NW,325,0.0,5.4,100,0.00,,,0.83,VWS V14.01,2013-04-12 23:48:00,
2013-04-12 19:53:00,46.1,46.1,29.59,NE,41,5.4,5.4,100,0.00,,,0.83,VWS V14.01,2013-04-12 23:53:00,
2013-04-12 19:58:00,46.1,46.1,29.59,North,353,4.0,6.3,100,0.00,,,0.83,VWS V14.01,2013-04-12 23:58:00,
2013-04-12 20:03:00,46.1,46.1,29.59,East,82,3.1,4.0,100,0.00,,,0.83,VWS V14.01,2013-04-13 00:03:00,
2013-04-12 20:08:00,46.1,46.1,29.56,ENE,75,3.1,5.4,100,0.00,,,0.83,VWS V14.01,2013-04-13 00:08:00,
2013-04-12 20:13:00,46.0,46.0,29.56,ENE,60,3.6,5.4,100,0.00,,,0.83,VWS V14.01,2013-04-13 00:13:00,
2013-04-12 20:18:00,46.0,46.0,29.56,ENE,60,3.6,3.6,100,0.00,,,0.83,VWS V14.01,2013-04-13 00:18:00,
2013-04-12 20:24:00,46.0,46.0,29.59,NNE,27,4.0,4.0,100,0.00,,,0.83,VWS V14.01,2013-04-13 00:24:00,
2013-04-12 20:29:00,46.0,46.0,29.59,NNE,21,3.6,5.4,100,0.00,,,0.83,VWS V14.01,2013-04-13 00:29:00,
2013-04-12 20:34:00,45.8,45.8,29.59,North,353,3.1,6.3,100,0.00,,,0.83,VWS V14.01,2013-04-13 00:34:00,
2013-04-12 20:39:00,45.6,45.6,29.59,NE,49,3.6,4.0,100,0.00,,,0.83,VWS V14.01,2013-04-13 00:39:00,
2013-04-12 20:44:00,45.6,45.6,29.59,NNE,27,0.0,3.6,100,0.00,,,0.83,VWS V14.01,2013-04-13 00:44:00,
2013-04-12 20:49:00,45.4,45.4,29.59,NE,44,2.7,4.0,100,0.00,,,0.83,VWS V14.01,2013-04-13 00:49:00,
2013-04-12 20:54:00,45.4,45.4,29.59,North,10,2.7,2.7,100,0.00,,,0.83,VWS V14.01,2013-04-13 00:54:00,
2013-04-12 20:59:00,45.4,45.4,29.59,ENE,64,3.6,3.6,100,0.00,,,0.83,VWS V14.01,2013-04-13 00:59:00,
2013-04-12 21:04:00,45.2,45.2,29.59,NNE,28,4.9,4.9,100,0.00,,,0.83,VWS V14.01,2013-04-13 01:04:00,
2013-04-12 21:09:00,45.1,45.1,29.59,NE,49,5.4,5.4,100,0.00,,,0.83,VWS V14.01,2013-04-13 01:09:00,
2013-04-12 21:15:00,45.1,45.1,29.59,NE,46,5.8,5.8,100,0.00,,,0.83,VWS V14.01,2013-04-13 01:15:00,
2013-04-12 21:20:00,45.1,45.1,29.59,NNE,15,5.4,6.3,100,0.00,,,0.83,VWS V14.01,2013-04-13 01:20:00,
2013-04-12 21:25:00,44.9,44.9,29.59,ENE,63,0.0,4.0,100,0.00,,,0.83,VWS V14.01,2013-04-13 01:25:00,
2013-04-12 21:30:00,44.9,44.9,29.59,NE,55,2.2,4.0,100,0.00,,,0.83,VWS V14.01,2013-04-13 01:30:00,
2013-04-12 21:35:00,44.9,44.9,29.59,North,6,4.0,5.8,100,0.00,,,0.83,VWS V14.01,2013-04-13 01:35:00,
2013-04-12 21:40:00,44.9,44.9,29.59,NE,40,0.0,0.0,100,0.00,,,0.83,VWS V14.01,2013-04-13 01:40:00,
2013-04-12 21:45:00,44.9,44.9,29.59,ENE,63,0.0,0.0,100,0.00,,,0.83,VWS V14.01,2013-04-13 01:45:00,
2013-04-12 21:51:00,44.9,44.9,29.59,NE,37,2.7,3.1,100,0.00,,,0.83,VWS V14.01,2013-04-13 01:51:00,
2013-04-12 21:56:00,44.7,44.7,29.62,ENE,64,5.8,5.8,100,0.00,,,0.83,VWS V14.01,2013-04-13 01:56:00,
2013-04-12 22:01:00,44.7,44.7,29.62,NNE,22,2.7,3.1,100,0.00,,,0.83,VWS V14.01,2013-04-13 02:01:00,
2013-04-12 22:06:00,44.7,44.7,29.62,NNE,21,0.0,3.6,100,0.00,,,0.83,VWS V14.01,2013-04-13 02:06:00,
2013-04-12 22:11:00,44.7,44.7,29.59,ENE,75,2.2,3.1,100,0.00,,,0.83,VWS V14.01,2013-04-13 02:11:00,
2013-04-12 22:16:00,44.7,44.7,29.59,NNE,33,4.0,4.9,100,0.00,,,0.83,VWS V14.01,2013-04-13 02:16:00,
2013-04-12 22:22:00,44.5,44.5,29.59,ENE,62,6.3,6.3,100,0.00,,,0.83,VWS V14.01,2013-04-13 02:22:00,
2013-04-12 22:27:00,44.5,44.5,29.59,ENE,63,5.4,5.4,100,0.00,,,0.83,VWS V14.01,2013-04-13 02:27:00,
2013-04-12 22:33:00,44.5,44.5,29.59,NE,55,6.3,6.3,100,0.00,,,0.83,VWS V14.01,2013-04-13 02:33:00,
2013-04-12 22:38:00,44.5,44.5,29.59,NE,34,7.6,7.6,100,0.00,,,0.83,VWS V14.01,2013-04-13 02:38:00,
2013-04-12 22:43:00,44.3,44.3,29.59,NE,47,2.2,3.6,100,0.00,,,0.83,VWS V14.01,2013-04-13 02:43:00,
2013-04-12 22:48:00,44.3,44.3,29.59,NE,45,3.1,3.6,100,0.00,,,0.83,VWS V14.01,2013-04-13 02:48:00,
2013-04-12 22:53:00,44.3,44.3,29.62,NNE,17,3.1,4.0,100,0.00,,,0.83,VWS V14.01,2013-04-13 02:53:00,
2013-04-12 22:58:00,44.3,44.3,29.62,NE,35,0.0,0.0,100,0.00,,,0.83,VWS V14.01,2013-04-13 02:58:00,
2013-04-12 23:03:00,44.3,44.3,29.62,ENE,63,3.6,3.6,100,0.00,,,0.83,VWS V14.01,2013-04-13 03:03:00,
2013-04-12 23:08:00,44.3,44.3,29.62,NE,51,5.4,5.4,100,0.00,,,0.83,VWS V14.01,2013-04-13 03:08:00,
2013-04-12 23:14:00,44.3,44.3,29.62,NE,39,4.0,4.0,100,0.00,,,0.83,VWS V14.01,2013-04-13 03:14:00,
2013-04-12 23:19:00,44.3,44.3,29.62,North,0,8.1,8.3,100,0.00,,,0.83,VWS V14.01,2013-04-13 03:19:00,
2013-04-12 23:24:00,44.3,44.3,29.59,NE,54,5.4,10.1,100,0.00,,,0.83,VWS V14.01,2013-04-13 03:24:00,
2013-04-12 23:29:00,44.2,44.2,29.59,NW,319,0.0,4.0,100,0.00,,,0.83,VWS V14.01,2013-04-13 03:29:00,
2013-04-12 23:34:00,44.2,44.2,29.59,North,10,2.7,4.0,100,0.00,,,0.83,VWS V14.01,2013-04-13 03:34:00,
2013-04-12 23:39:00,44.3,44.3,29.68,SW,221,5.4,6.3,100,0.00,,,0.83,VWS V14.01,2013-04-13 03:39:00,
2013-04-12 23:44:00,44.5,44.5,29.68,East,93,3.1,3.1,100,0.16,,,0.98,VWS V14.01,2013-04-13 03:44:00,
2013-04-12 23:49:00,44.3,44.3,29.68,ENE,62,4.0,4.0,100,0.31,,,1.14,VWS V14.01,2013-04-13 03:49:00,
2013-04-12 23:55:00,44.3,44.3,29.62,NE,44,3.1,3.1,100,0.39,,,1.22,VWS V14.01,2013-04-13 03:55:00,